AUA492 LPPR-LOWW

Flight info

Callsign AUA492
Flight time 2h 22m
Altitude 38000
Route BELDU DCT ADORO DCT FITSE DCT DGO DCT LPA DCT GOSVI T429 TOPTU DCT TOU DCT GAI/N0375F300 DCT MEN DCT NINUN/N0430F380 DCT LATAM DCT ETREK DCT LTP DCT SOPLO DCT OMASI DCT KINNI DCT SOSAL DCT KORED DCT BERSU DCT DITON DCT DEGES DCT GAMSA/N0426F390 DCT BIRGI/N0407F350 DCT NEMAL NEMAL2W
Aircraft A20N/M-SDE2E3FGHIJ1RWXY/LB1

Departure

Time 2026-05-05 13:50
Airport Francisco de Sá Carneiro Airport (LPPR)

Arrival

Time 2026-05-05 16:13
Airport Vienna International Airport (LOWW)
Time Latitude Longitude Altitude Speed Heading
2026-05-05 13:31 41.23778 -8.67292 237 ft 0 kts 48°
2026-05-05 13:42 41.23774 -8.67299 236 ft 2 kts 48°
2026-05-05 13:43 41.23762 -8.67316 235 ft 2 kts 47°
2026-05-05 13:43 41.23751 -8.67332 234 ft 2 kts 47°
2026-05-05 13:43 41.23740 -8.67349 233 ft 2 kts 47°
2026-05-05 13:43 41.23728 -8.67366 232 ft 2 kts 52°
2026-05-05 13:44 41.23723 -8.67390 231 ft 2 kts 95°
2026-05-05 13:44 41.23727 -8.67409 230 ft 0 kts 123°
2026-05-05 13:44 41.23732 -8.67417 230 ft 0 kts 127°
2026-05-05 13:47 41.23733 -8.67418 230 ft 0 kts 127°
2026-05-05 13:47 41.23732 -8.67418 230 ft 1 kts 127°
2026-05-05 13:47 41.23714 -8.67386 231 ft 5 kts 127°
2026-05-05 13:48 41.23665 -8.67344 234 ft 9 kts 164°
2026-05-05 13:48 41.23577 -8.67349 236 ft 11 kts 206°
2026-05-05 13:48 41.23485 -8.67386 236 ft 12 kts 172°
2026-05-05 13:48 41.23385 -8.67366 236 ft 12 kts 183°
2026-05-05 13:49 41.23328 -8.67473 232 ft 14 kts 255°
2026-05-05 13:49 41.23300 -8.67660 225 ft 19 kts 272°
2026-05-05 13:49 41.23405 -8.67759 221 ft 8 kts 347°
2026-05-05 13:49 41.23414 -8.67761 221 ft 0 kts 348°
2026-05-05 13:50 41.23721 -8.67844 214 ft 86 kts 348°
2026-05-05 13:50 41.24716 -8.68108 236 ft 156 kts 346°
2026-05-05 13:50 41.26002 -8.68465 967 ft 161 kts 347°
2026-05-05 13:50 41.27346 -8.68830 1895 ft 163 kts 347°
2026-05-05 13:51 41.28699 -8.69197 2697 ft 174 kts 347°
2026-05-05 13:51 41.30236 -8.69600 3376 ft 194 kts 351°
2026-05-05 13:51 41.31947 -8.69006 3924 ft 230 kts 39°
2026-05-05 13:51 41.32859 -8.66560 4717 ft 259 kts 82°
2026-05-05 13:52 41.32845 -8.63594 5597 ft 276 kts 90°
2026-05-05 13:52 41.32753 -8.60502 6751 ft 280 kts 89°
2026-05-05 13:52 41.32744 -8.57298 7934 ft 283 kts 86°
2026-05-05 13:52 41.32807 -8.54080 9031 ft 288 kts 84°
2026-05-05 13:53 41.32915 -8.50763 10115 ft 293 kts 84°
2026-05-05 13:53 41.33046 -8.47412 10950 ft 305 kts 83°
2026-05-05 13:53 41.33190 -8.44013 11775 ft 315 kts 83°
2026-05-05 13:53 41.33337 -8.40531 12710 ft 321 kts 83°
2026-05-05 13:54 41.33486 -8.37056 13622 ft 326 kts 83°
2026-05-05 13:54 41.33633 -8.33582 14479 ft 331 kts 83°
2026-05-05 13:54 41.33783 -8.30006 15312 ft 337 kts 83°
2026-05-05 13:54 41.33935 -8.26374 16132 ft 343 kts 83°
2026-05-05 13:55 41.34088 -8.22732 16923 ft 348 kts 83°
2026-05-05 13:55 41.34242 -8.19016 17700 ft 354 kts 83°
2026-05-05 13:55 41.34397 -8.15242 18436 ft 360 kts 82°
2026-05-05 13:55 41.34556 -8.11392 19149 ft 365 kts 82°
2026-05-05 13:56 41.34715 -8.07455 19828 ft 371 kts 82°
2026-05-05 13:56 41.34876 -8.03434 20510 ft 377 kts 82°
2026-05-05 13:56 41.35038 -7.99346 21263 ft 380 kts 81°
2026-05-05 13:56 41.35200 -7.95198 22003 ft 384 kts 81°
2026-05-05 13:57 41.35369 -7.90869 22645 ft 390 kts 80°
2026-05-05 13:57 41.35537 -7.86546 23259 ft 397 kts 80°
2026-05-05 13:57 41.35714 -7.81935 23922 ft 403 kts 80°
2026-05-05 13:57 41.35922 -7.77342 24606 ft 407 kts 78°
2026-05-05 13:58 41.36313 -7.72635 25295 ft 411 kts 76°
2026-05-05 13:58 41.36743 -7.67939 25935 ft 415 kts 76°
2026-05-05 13:58 41.37170 -7.63255 26569 ft 420 kts 76°
2026-05-05 13:58 41.37584 -7.58633 27180 ft 424 kts 77°
2026-05-05 13:59 41.38413 -7.49219 28299 ft 431 kts 77°
2026-05-05 13:59 41.38821 -7.44549 28778 ft 436 kts 77°
2026-05-05 14:00 41.39637 -7.35096 29695 ft 443 kts 77°
2026-05-05 14:00 41.40047 -7.30328 30089 ft 447 kts 78°
2026-05-05 14:00 41.40461 -7.25476 30468 ft 451 kts 78°
2026-05-05 14:00 41.40873 -7.20607 30880 ft 453 kts 78°
2026-05-05 14:01 41.41291 -7.15663 31257 ft 456 kts 78°
2026-05-05 14:01 41.41708 -7.10685 31646 ft 458 kts 79°
2026-05-05 14:01 41.42129 -7.05657 31983 ft 460 kts 79°
2026-05-05 14:01 41.42559 -7.00484 32358 ft 462 kts 79°
2026-05-05 14:02 41.42985 -6.95320 32728 ft 464 kts 79°
2026-05-05 14:02 41.43406 -6.90180 33046 ft 466 kts 79°
2026-05-05 14:02 41.43835 -6.84939 33361 ft 468 kts 79°
2026-05-05 14:02 41.44264 -6.79659 33672 ft 470 kts 79°
2026-05-05 14:03 41.44688 -6.74386 34113 ft 468 kts 79°
2026-05-05 14:03 41.45108 -6.69150 34450 ft 466 kts 80°
2026-05-05 14:03 41.45527 -6.63926 34761 ft 465 kts 80°
2026-05-05 14:03 41.45943 -6.58654 35057 ft 464 kts 81°
2026-05-05 14:04 41.46361 -6.53347 35311 ft 464 kts 81°
2026-05-05 14:04 41.46772 -6.48095 35607 ft 463 kts 81°
2026-05-05 14:04 41.47185 -6.42748 35931 ft 462 kts 81°
2026-05-05 14:04 41.47604 -6.37352 36249 ft 462 kts 81°
2026-05-05 14:05 41.48169 -6.32055 36533 ft 461 kts 77°
2026-05-05 14:05 41.49058 -6.26758 36802 ft 460 kts 72°
2026-05-05 14:05 41.50269 -6.21580 37023 ft 459 kts 67°
2026-05-05 14:05 41.51746 -6.16552 37217 ft 459 kts 65°
2026-05-05 14:06 41.53271 -6.11596 37449 ft 459 kts 65°
2026-05-05 14:06 41.54816 -6.06563 37659 ft 460 kts 65°
2026-05-05 14:06 41.56334 -6.01573 37834 ft 462 kts 65°
2026-05-05 14:06 41.57853 -5.96551 37940 ft 464 kts 65°
2026-05-05 14:07 41.60924 -5.86341 37968 ft 464 kts 65°
2026-05-05 14:07 41.63967 -5.76168 37963 ft 464 kts 66°
2026-05-05 14:08 41.67001 -5.65979 37963 ft 465 kts 66°
2026-05-05 14:08 41.70059 -5.55673 37960 ft 465 kts 65°
2026-05-05 14:09 41.73107 -5.45404 37953 ft 465 kts 66°
2026-05-05 14:09 41.76165 -5.35049 37954 ft 466 kts 66°
2026-05-05 14:10 41.79143 -5.24906 37953 ft 466 kts 66°
2026-05-05 14:10 41.82141 -5.14651 37961 ft 466 kts 66°
2026-05-05 14:11 41.85089 -5.04528 37968 ft 466 kts 66°
2026-05-05 14:11 41.88058 -4.94289 37969 ft 466 kts 67°
2026-05-05 14:12 41.90993 -4.84129 37938 ft 467 kts 67°
2026-05-05 14:12 41.93927 -4.73930 37966 ft 467 kts 67°
2026-05-05 14:13 41.96871 -4.63657 37934 ft 467 kts 67°
2026-05-05 14:13 41.99810 -4.53362 37939 ft 467 kts 67°
2026-05-05 14:14 42.02774 -4.42931 37931 ft 468 kts 67°
2026-05-05 14:14 42.05702 -4.32589 37981 ft 468 kts 68°
2026-05-05 14:15 42.08609 -4.22278 37960 ft 468 kts 68°
2026-05-05 14:15 42.10038 -4.17199 38073 ft 469 kts 68°
2026-05-05 14:15 42.11468 -4.12096 38371 ft 467 kts 68°
2026-05-05 14:16 42.12895 -4.06992 38632 ft 466 kts 68°
2026-05-05 14:16 42.14333 -4.01844 38839 ft 466 kts 68°
2026-05-05 14:16 42.15786 -3.96632 38940 ft 466 kts 68°
2026-05-05 14:16 42.17233 -3.91436 38944 ft 467 kts 68°
2026-05-05 14:17 42.20096 -3.81111 38947 ft 467 kts 68°
2026-05-05 14:17 42.22975 -3.70679 38962 ft 467 kts 68°
2026-05-05 14:18 42.25832 -3.60286 38972 ft 467 kts 68°
2026-05-05 14:18 42.28684 -3.49874 38969 ft 468 kts 68°
2026-05-05 14:19 42.31556 -3.39342 38972 ft 468 kts 69°
2026-05-05 14:19 42.34369 -3.28975 38956 ft 468 kts 69°
2026-05-05 14:20 42.37195 -3.18513 38938 ft 468 kts 69°
2026-05-05 14:20 42.40004 -3.08065 38938 ft 469 kts 69°
2026-05-05 14:21 42.42793 -2.97608 38946 ft 469 kts 71°
2026-05-05 14:21 42.44833 -2.86867 38957 ft 468 kts 81°
2026-05-05 14:22 42.45577 -2.75743 38958 ft 468 kts 89°
2026-05-05 14:22 42.45690 -2.64660 38955 ft 468 kts 90°
2026-05-05 14:23 42.45818 -2.53517 38949 ft 468 kts 89°
2026-05-05 14:23 42.45953 -2.42446 38952 ft 468 kts 90°
2026-05-05 14:24 42.46457 -2.31379 38944 ft 469 kts 83°
2026-05-05 14:24 42.48064 -2.20479 38945 ft 469 kts 77°
2026-05-05 14:25 42.49903 -2.09630 38945 ft 469 kts 78°
2026-05-05 14:25 42.51718 -1.98687 38945 ft 470 kts 78°
2026-05-05 14:26 42.53511 -1.87772 38936 ft 470 kts 78°
2026-05-05 14:26 42.55283 -1.76879 38941 ft 470 kts 78°
2026-05-05 14:27 42.57043 -1.65994 38937 ft 471 kts 78°
2026-05-05 14:27 42.58797 -1.55083 38940 ft 471 kts 78°
2026-05-05 14:28 42.60504 -1.44370 38928 ft 471 kts 78°
2026-05-05 14:28 42.62196 -1.33717 38932 ft 470 kts 79°
2026-05-05 14:29 42.63871 -1.23153 38934 ft 471 kts 79°
2026-05-05 14:29 42.65530 -1.12580 38922 ft 472 kts 79°
2026-05-05 14:30 42.67191 -1.01936 38922 ft 471 kts 79°
2026-05-05 14:30 42.68797 -0.91550 38918 ft 471 kts 79°
2026-05-05 14:31 42.70417 -0.81005 38935 ft 471 kts 79°
2026-05-05 14:31 42.72035 -0.70415 38934 ft 472 kts 79°
2026-05-05 14:32 42.73646 -0.59797 38933 ft 472 kts 79°
2026-05-05 14:32 42.75259 -0.49075 38909 ft 472 kts 79°
2026-05-05 14:33 42.76879 -0.38231 38893 ft 471 kts 79°
2026-05-05 14:33 42.78597 -0.27497 38902 ft 472 kts 75°
2026-05-05 14:34 42.81639 -0.17331 38897 ft 473 kts 61°
2026-05-05 14:34 42.86210 -0.08310 38913 ft 472 kts 50°
2026-05-05 14:35 42.91228 -0.00071 38927 ft 472 kts 49°
2026-05-05 14:35 42.96368 0.08431 38939 ft 472 kts 50°
2026-05-05 14:36 43.01508 0.17027 38932 ft 472 kts 50°
2026-05-05 14:36 43.06711 0.25767 38929 ft 472 kts 50°
2026-05-05 14:37 43.11703 0.34178 38939 ft 472 kts 50°
2026-05-05 14:37 43.16727 0.42668 38941 ft 472 kts 50°
2026-05-05 14:38 43.21763 0.51201 38948 ft 472 kts 50°
2026-05-05 14:38 43.26839 0.59829 38954 ft 472 kts 50°
2026-05-05 14:39 43.31859 0.68388 38950 ft 471 kts 51°
2026-05-05 14:39 43.36801 0.76838 38941 ft 472 kts 51°
2026-05-05 14:40 43.41765 0.85350 38947 ft 472 kts 51°
2026-05-05 14:40 43.46687 0.93816 38933 ft 471 kts 51°
2026-05-05 14:41 43.51556 1.02215 38931 ft 470 kts 51°
2026-05-05 14:41 43.56431 1.10650 38923 ft 471 kts 51°
2026-05-05 14:42 43.61279 1.19067 38916 ft 471 kts 51°
2026-05-05 14:42 43.66090 1.27448 38926 ft 471 kts 51°
2026-05-05 14:43 43.70848 1.35960 38925 ft 471 kts 53°
2026-05-05 14:43 43.75406 1.44554 38922 ft 470 kts 53°
2026-05-05 14:44 43.79964 1.53146 38914 ft 470 kts 53°
2026-05-05 14:44 43.84510 1.61716 38911 ft 470 kts 53°
2026-05-05 14:45 43.89071 1.70338 38901 ft 469 kts 54°
2026-05-05 14:45 43.93653 1.79029 38891 ft 469 kts 54°
2026-05-05 14:46 43.98193 1.87831 38889 ft 470 kts 56°
2026-05-05 14:46 44.02668 1.96844 38898 ft 469 kts 56°
2026-05-05 14:47 44.07154 2.05890 38894 ft 468 kts 56°
2026-05-05 14:47 44.11559 2.14786 38898 ft 469 kts 56°
2026-05-05 14:48 44.15964 2.23706 38898 ft 469 kts 56°
2026-05-05 14:48 44.20419 2.32751 38895 ft 470 kts 56°
2026-05-05 14:49 44.24845 2.41771 38886 ft 469 kts 56°
2026-05-05 14:49 44.29290 2.50854 38888 ft 469 kts 56°
2026-05-05 14:50 44.33698 2.59889 38895 ft 469 kts 56°
2026-05-05 14:50 44.38078 2.68896 38896 ft 469 kts 56°
2026-05-05 14:51 44.42463 2.77943 38900 ft 470 kts 56°
2026-05-05 14:51 44.46874 2.87075 38900 ft 469 kts 56°
2026-05-05 14:52 44.51252 2.96168 38893 ft 468 kts 56°
2026-05-05 14:52 44.55593 3.05212 38893 ft 468 kts 56°
2026-05-05 14:53 44.60009 3.14449 38885 ft 468 kts 57°
2026-05-05 14:53 44.64039 3.24021 38882 ft 468 kts 61°
2026-05-05 14:54 44.67927 3.33784 38872 ft 467 kts 61°
2026-05-05 14:54 44.71862 3.43659 38875 ft 467 kts 61°
2026-05-05 14:55 44.75790 3.53538 38883 ft 467 kts 61°
2026-05-05 14:55 44.79736 3.63462 38883 ft 466 kts 61°
2026-05-05 14:56 44.83522 3.73018 38880 ft 468 kts 62°
2026-05-05 14:56 44.87278 3.82549 38873 ft 468 kts 62°
2026-05-05 14:57 44.91032 3.92112 38875 ft 467 kts 62°
2026-05-05 14:57 44.94740 4.01592 38874 ft 468 kts 62°
2026-05-05 14:58 44.98409 4.11008 38875 ft 467 kts 62°
2026-05-05 14:58 45.02055 4.20403 38875 ft 468 kts 62°
2026-05-05 14:59 45.05690 4.29775 38873 ft 467 kts 62°
2026-05-05 14:59 45.09326 4.39175 38882 ft 467 kts 62°
2026-05-05 15:00 45.12301 4.46911 38880 ft 468 kts 62°
2026-05-05 15:00 45.16555 4.58017 38870 ft 468 kts 62°
2026-05-05 15:01 45.20138 4.67388 38865 ft 467 kts 63°
2026-05-05 15:01 45.23655 4.76599 38856 ft 467 kts 63°
2026-05-05 15:02 45.27159 4.85820 38857 ft 466 kts 63°
2026-05-05 15:02 45.30673 4.95111 38853 ft 467 kts 63°
2026-05-05 15:03 45.34172 5.04399 38868 ft 468 kts 63°
2026-05-05 15:03 45.37650 5.13659 38882 ft 468 kts 63°
2026-05-05 15:04 45.41172 5.23076 38910 ft 468 kts 63°
2026-05-05 15:04 45.44680 5.32489 38898 ft 469 kts 63°
2026-05-05 15:05 45.51241 5.46199 38884 ft 469 kts 49°
2026-05-05 15:06 45.56618 5.53840 38885 ft 469 kts 41°
2026-05-05 15:06 45.62262 5.60952 38885 ft 469 kts 41°
2026-05-05 15:07 45.67757 5.67947 38888 ft 469 kts 42°
2026-05-05 15:07 45.73275 5.75031 38885 ft 468 kts 42°
2026-05-05 15:08 45.78781 5.82091 38877 ft 468 kts 42°
2026-05-05 15:08 45.84300 5.89201 38882 ft 467 kts 42°
2026-05-05 15:09 45.89760 5.96258 38887 ft 466 kts 42°
2026-05-05 15:09 45.95206 6.03300 38885 ft 465 kts 42°
2026-05-05 15:10 46.00673 6.10398 38913 ft 466 kts 42°
2026-05-05 15:10 46.06203 6.17608 38908 ft 467 kts 42°
2026-05-05 15:11 46.11617 6.24918 38907 ft 467 kts 44°
2026-05-05 15:11 46.16913 6.32446 38900 ft 466 kts 45°
2026-05-05 15:12 46.22263 6.40080 38904 ft 466 kts 45°
2026-05-05 15:12 46.27616 6.47729 38898 ft 467 kts 45°
2026-05-05 15:13 46.33122 6.55619 38899 ft 467 kts 45°
2026-05-05 15:13 46.38556 6.63431 38901 ft 467 kts 45°
2026-05-05 15:14 46.43854 6.71069 38899 ft 467 kts 46°
2026-05-05 15:14 46.49165 6.78753 38919 ft 466 kts 46°
2026-05-05 15:15 46.54434 6.86405 38929 ft 466 kts 47°
2026-05-05 15:15 46.59402 6.94725 38912 ft 465 kts 52°
2026-05-05 15:16 46.64134 7.03302 38910 ft 465 kts 52°
2026-05-05 15:16 46.68926 7.11991 38909 ft 465 kts 52°
2026-05-05 15:17 46.73710 7.20667 38905 ft 465 kts 52°
2026-05-05 15:17 46.78447 7.29285 38898 ft 465 kts 52°
2026-05-05 15:18 46.83146 7.37862 38902 ft 465 kts 52°
2026-05-05 15:18 46.87808 7.46388 38902 ft 466 kts 52°
2026-05-05 15:19 46.92538 7.55070 38897 ft 465 kts 52°
2026-05-05 15:19 46.97304 7.63860 38901 ft 465 kts 52°
2026-05-05 15:20 47.01892 7.72356 38909 ft 465 kts 53°
2026-05-05 15:20 47.06363 7.80662 38909 ft 465 kts 53°
2026-05-05 15:21 47.10809 7.88947 38901 ft 465 kts 53°
2026-05-05 15:21 47.15047 7.97474 38910 ft 464 kts 59°
2026-05-05 15:22 47.18868 8.06424 38913 ft 464 kts 60°
2026-05-05 15:22 47.22667 8.15426 38893 ft 464 kts 59°
2026-05-05 15:23 47.26438 8.24415 38911 ft 464 kts 62°
2026-05-05 15:23 47.29547 8.33902 38893 ft 462 kts 71°
2026-05-05 15:24 47.31655 8.44023 38892 ft 458 kts 80°
2026-05-05 15:24 47.32980 8.54153 38905 ft 457 kts 82°
2026-05-05 15:25 47.34251 8.64270 38899 ft 457 kts 82°
2026-05-05 15:25 47.35518 8.74241 38893 ft 457 kts 83°
2026-05-05 15:26 47.36797 8.84324 38888 ft 457 kts 83°
2026-05-05 15:26 47.38066 8.94411 38887 ft 457 kts 83°
2026-05-05 15:27 47.39345 9.04653 38898 ft 458 kts 83°
2026-05-05 15:27 47.40610 9.14991 38886 ft 457 kts 84°
2026-05-05 15:28 47.41242 9.25504 38879 ft 453 kts 93°
2026-05-05 15:28 47.41166 9.36093 38874 ft 453 kts 94°
2026-05-05 15:29 47.41049 9.46781 38851 ft 453 kts 94°
2026-05-05 15:29 47.40940 9.57455 38858 ft 453 kts 94°
2026-05-05 15:30 47.40822 9.67952 38853 ft 453 kts 95°
2026-05-05 15:30 47.40646 9.78385 38862 ft 453 kts 95°
2026-05-05 15:31 47.40450 9.88799 38876 ft 453 kts 95°
2026-05-05 15:31 47.40250 9.99122 38902 ft 453 kts 96°
2026-05-05 15:32 47.40041 10.09452 38909 ft 453 kts 95°
2026-05-05 15:32 47.39823 10.19740 38902 ft 453 kts 95°
2026-05-05 15:33 47.39599 10.29903 38916 ft 453 kts 95°
2026-05-05 15:33 47.39365 10.40093 38914 ft 454 kts 95°
2026-05-05 15:34 47.39119 10.50459 38912 ft 454 kts 95°
2026-05-05 15:34 47.38863 10.60814 38938 ft 453 kts 95°
2026-05-05 15:35 47.38599 10.71180 38927 ft 453 kts 96°
2026-05-05 15:35 47.38328 10.81397 38916 ft 454 kts 96°
2026-05-05 15:36 47.38044 10.91753 38916 ft 454 kts 96°
2026-05-05 15:36 47.37747 11.02204 38923 ft 453 kts 95°
2026-05-05 15:37 47.37442 11.12648 38932 ft 453 kts 95°
2026-05-05 15:37 47.37116 11.23408 38924 ft 453 kts 95°
2026-05-05 15:38 47.36778 11.34291 38905 ft 454 kts 95°
2026-05-05 15:38 47.36420 11.45428 38913 ft 454 kts 95°
2026-05-05 15:39 47.36055 11.56385 38923 ft 454 kts 95°
2026-05-05 15:39 47.35687 11.67217 38937 ft 454 kts 95°
2026-05-05 15:40 47.35317 11.77705 38932 ft 454 kts 95°
2026-05-05 15:40 47.35529 11.88604 38924 ft 456 kts 83°
2026-05-05 15:41 47.37455 11.99134 38925 ft 458 kts 68°
2026-05-05 15:41 47.40754 12.08698 38925 ft 458 kts 60°
2026-05-05 15:42 47.44333 12.18168 38908 ft 458 kts 61°
2026-05-05 15:42 47.47912 12.27791 38899 ft 457 kts 61°
2026-05-05 15:43 47.51508 12.37558 38903 ft 456 kts 61°
2026-05-05 15:43 47.55116 12.47403 38882 ft 456 kts 61°
2026-05-05 15:44 47.58741 12.57337 38875 ft 455 kts 61°
2026-05-05 15:44 47.62302 12.67131 38858 ft 455 kts 62°
2026-05-05 15:45 47.65725 12.76584 38862 ft 455 kts 62°
2026-05-05 15:45 47.69202 12.86216 38836 ft 454 kts 62°
2026-05-05 15:46 47.72719 12.95997 38817 ft 454 kts 62°
2026-05-05 15:46 47.76144 13.05556 38706 ft 454 kts 62°
2026-05-05 15:46 47.77825 13.10258 38017 ft 453 kts 62°
2026-05-05 15:47 47.79484 13.14908 37490 ft 447 kts 62°
2026-05-05 15:47 47.81154 13.19599 36955 ft 443 kts 62°
2026-05-05 15:47 47.82833 13.24327 36485 ft 444 kts 62°
2026-05-05 15:47 47.84540 13.29142 36085 ft 444 kts 62°
2026-05-05 15:48 47.86156 13.33715 35694 ft 445 kts 62°
2026-05-05 15:48 47.87773 13.38301 35312 ft 446 kts 62°
2026-05-05 15:48 47.89370 13.42833 34946 ft 446 kts 62°
2026-05-05 15:48 47.90852 13.47492 34523 ft 445 kts 71°
2026-05-05 15:49 47.91718 13.52483 34056 ft 444 kts 83°
2026-05-05 15:49 47.91915 13.57413 33617 ft 442 kts 91°
2026-05-05 15:49 47.91866 13.62404 33162 ft 441 kts 93°
2026-05-05 15:49 47.91785 13.67728 32676 ft 438 kts 94°
2026-05-05 15:50 47.91725 13.73050 32187 ft 434 kts 93°
2026-05-05 15:50 47.91689 13.78002 31733 ft 431 kts 93°
2026-05-05 15:50 47.91660 13.82863 31283 ft 428 kts 93°
2026-05-05 15:50 47.91632 13.87817 30821 ft 424 kts 93°
2026-05-05 15:51 47.91601 13.92830 30350 ft 421 kts 93°
2026-05-05 15:51 47.91566 13.97771 29881 ft 417 kts 93°
2026-05-05 15:51 47.91529 14.02506 29432 ft 414 kts 93°
2026-05-05 15:51 47.91491 14.07040 28994 ft 410 kts 93°
2026-05-05 15:52 47.91454 14.11515 28563 ft 407 kts 93°
2026-05-05 15:52 47.91412 14.16157 28116 ft 404 kts 93°
2026-05-05 15:52 47.91364 14.21099 27634 ft 401 kts 93°
2026-05-05 15:52 47.91318 14.25711 27179 ft 397 kts 93°
2026-05-05 15:53 47.91272 14.30261 26728 ft 394 kts 93°
2026-05-05 15:53 47.91221 14.34863 26278 ft 391 kts 93°
2026-05-05 15:53 47.91167 14.39636 25807 ft 388 kts 93°
2026-05-05 15:53 47.91114 14.44363 25343 ft 385 kts 92°
2026-05-05 15:54 47.91062 14.48967 24914 ft 382 kts 92°
2026-05-05 15:54 47.91008 14.53511 24474 ft 379 kts 92°
2026-05-05 15:54 47.90950 14.58140 24022 ft 377 kts 92°
2026-05-05 15:54 47.90891 14.62774 23570 ft 374 kts 92°
2026-05-05 15:55 47.90827 14.67403 23122 ft 370 kts 93°
2026-05-05 15:55 47.90761 14.72089 22668 ft 367 kts 93°
2026-05-05 15:55 47.90695 14.76682 22223 ft 365 kts 93°
2026-05-05 15:55 47.90630 14.81189 21782 ft 363 kts 93°
2026-05-05 15:56 47.90564 14.85699 21344 ft 361 kts 93°
2026-05-05 15:56 47.90496 14.90199 20902 ft 358 kts 93°
2026-05-05 15:56 47.90427 14.94584 20472 ft 356 kts 93°
2026-05-05 15:56 47.90358 14.98916 20044 ft 354 kts 93°
2026-05-05 15:57 47.90285 15.03250 19616 ft 351 kts 93°
2026-05-05 15:57 47.90260 15.07548 19203 ft 350 kts 86°
2026-05-05 15:57 47.91209 15.11560 18771 ft 352 kts 58°
2026-05-05 15:57 47.92919 15.14980 18359 ft 351 kts 52°
2026-05-05 15:58 47.94718 15.18345 17932 ft 348 kts 53°
2026-05-05 15:58 47.96446 15.21694 17519 ft 345 kts 54°
2026-05-05 15:58 47.98125 15.25067 17113 ft 343 kts 54°
2026-05-05 15:58 47.99755 15.28421 16698 ft 340 kts 54°
2026-05-05 15:59 48.01386 15.31817 16292 ft 338 kts 55°
2026-05-05 15:59 48.02967 15.35255 15878 ft 336 kts 60°
2026-05-05 15:59 48.04199 15.38987 15459 ft 334 kts 66°
2026-05-05 15:59 48.05278 15.42658 15052 ft 332 kts 67°
2026-05-05 16:00 48.06382 15.46388 14641 ft 329 kts 66°
2026-05-05 16:00 48.07488 15.50053 14241 ft 327 kts 66°
2026-05-05 16:00 48.08621 15.53754 13812 ft 325 kts 65°
2026-05-05 16:00 48.09756 15.57433 13372 ft 323 kts 65°
2026-05-05 16:01 48.10859 15.60996 12937 ft 321 kts 65°
2026-05-05 16:01 48.11961 15.64557 12492 ft 319 kts 65°
2026-05-05 16:01 48.13045 15.68062 12055 ft 316 kts 66°
2026-05-05 16:01 48.14108 15.71500 11629 ft 314 kts 66°
2026-05-05 16:02 48.15158 15.74902 11203 ft 312 kts 66°
2026-05-05 16:02 48.16214 15.78328 10769 ft 310 kts 66°
2026-05-05 16:02 48.17247 15.81684 10347 ft 309 kts 66°
2026-05-05 16:02 48.18292 15.85080 9924 ft 308 kts 66°
2026-05-05 16:03 48.19322 15.88439 9491 ft 306 kts 65°
2026-05-05 16:03 48.20327 15.91712 9156 ft 300 kts 66°
2026-05-05 16:03 48.21300 15.94887 8880 ft 297 kts 66°
2026-05-05 16:03 48.22265 15.98040 8606 ft 296 kts 66°
2026-05-05 16:04 48.23201 16.01101 8335 ft 294 kts 66°
2026-05-05 16:04 48.24147 16.04197 8068 ft 293 kts 66°
2026-05-05 16:04 48.25072 16.07231 7800 ft 291 kts 67°
2026-05-05 16:04 48.26006 16.10301 7544 ft 290 kts 67°
2026-05-05 16:05 48.26954 16.13414 7271 ft 290 kts 67°
2026-05-05 16:05 48.27893 16.16514 7005 ft 288 kts 67°
2026-05-05 16:05 48.28744 16.19713 6727 ft 287 kts 73°
2026-05-05 16:05 48.29454 16.22945 6428 ft 286 kts 75°
2026-05-05 16:06 48.30153 16.26191 6091 ft 284 kts 75°
2026-05-05 16:06 48.30854 16.29421 5756 ft 280 kts 75°
2026-05-05 16:06 48.31473 16.32574 5418 ft 272 kts 86°
2026-05-05 16:06 48.31379 16.35741 5079 ft 260 kts 102°
2026-05-05 16:07 48.31052 16.38690 4756 ft 255 kts 105°
2026-05-05 16:07 48.30722 16.41531 4424 ft 244 kts 105°
2026-05-05 16:07 48.30407 16.44248 4106 ft 239 kts 107°
2026-05-05 16:07 48.29707 16.46699 3753 ft 216 kts 130°
2026-05-05 16:08 48.28722 16.48634 3421 ft 202 kts 134°
2026-05-05 16:08 48.27753 16.50378 3093 ft 188 kts 143°
2026-05-05 16:08 48.26644 16.51414 3082 ft 154 kts 160°
2026-05-05 16:08 48.25612 16.51997 2994 ft 130 kts 164°
2026-05-05 16:09 48.24732 16.52420 2960 ft 118 kts 166°
2026-05-05 16:09 48.23882 16.52799 2910 ft 117 kts 167°
2026-05-05 16:09 48.23036 16.53165 2745 ft 116 kts 167°
2026-05-05 16:09 48.22191 16.53524 2581 ft 116 kts 167°
2026-05-05 16:10 48.21357 16.53875 2420 ft 116 kts 167°
2026-05-05 16:10 48.20506 16.54232 2262 ft 115 kts 167°
2026-05-05 16:10 48.19672 16.54582 2101 ft 115 kts 167°
2026-05-05 16:10 48.18824 16.54938 1937 ft 115 kts 167°
2026-05-05 16:11 48.17985 16.55291 1778 ft 114 kts 168°
2026-05-05 16:11 48.15442 16.56360 1280 ft 113 kts 167°
2026-05-05 16:12 48.14579 16.56724 1121 ft 113 kts 166°
2026-05-05 16:12 48.12813 16.57470 776 ft 112 kts 166°
2026-05-05 16:13 48.11119 16.58152 593 ft 10 kts 205°
2026-05-05 16:13 48.11069 16.58079 595 ft 8 kts 245°
2026-05-05 16:13 48.11069 16.57995 595 ft 7 kts 292°
2026-05-05 16:14 48.11235 16.57851 595 ft 16 kts 343°
2026-05-05 16:14 48.11499 16.57739 594 ft 19 kts 343°
2026-05-05 16:15 48.11793 16.57611 593 ft 20 kts 334°
2026-05-05 16:15 48.11846 16.57236 597 ft 14 kts 295°
2026-05-05 16:16 48.11970 16.56920 592 ft 17 kts 295°
2026-05-05 16:16 48.11954 16.56745 592 ft 5 kts 206°
2026-05-05 16:17 48.11912 16.56714 593 ft 0 kts 205°